This is the latest recevied weather packets stored in our database for station/object SV8FES-1. If no packets are shown the sender has not sent any weather packets the latest 1 day(s).
| Time | Temp. | Humidity | Pressure | Rain* | Wind** | Luminosity | Snow |
|---|---|---|---|---|---|---|---|
| 1778082438 | 22.22° C | 50% | 1015.3 hPa | 0 mm | - | 230 W/m² | - |
| 1778082197 | 22.22° C | 50% | 1015.3 hPa | 0 mm | - | 248 W/m² | - |
| 1778082124 | 22.22° C | 50% | 1015.3 hPa | 0 mm | - | 251 W/m² | - |
| 1778081718 | 22.22° C | 49% | 1015.4 hPa | 0 mm | - | 274 W/m² | - |
| 1778081597 | 22.22° C | 49% | 1015.4 hPa | 0 mm | - | 281 W/m² | - |
| 1778081357 | 22.22° C | 46% | 1015.4 hPa | 0 mm | - | 292 W/m² | - |
| 1778081118 | 22.78° C | 46% | 1015.4 hPa | 0 mm | - | 297 W/m² | - |
| 1778080998 | 22.78° C | 47% | 1015.4 hPa | 0 mm | - | 301 W/m² | - |
| 1778080684 | 22.78° C | 47% | 1015.5 hPa | 0 mm | - | 320 W/m² | - |
| 1778080637 | 22.78° C | 46% | 1015.5 hPa | 0 mm | - | 323 W/m² | - |
| 1778080397 | 22.78° C | 45% | 1015.5 hPa | 0 mm | - | 339 W/m² | - |
| 1778080324 | 22.78° C | 46% | 1015.6 hPa | 0 mm | - | 343 W/m² | - |
| 1778080157 | 22.78° C | 46% | 1015.5 hPa | 0 mm | - | 352 W/m² | - |
| 1778080084 | 22.78° C | 47% | 1015.5 hPa | 0 mm | - | 352 W/m² | - |
| 1778078958 | 22.78° C | 50% | 1015.5 hPa | 0 mm | - | 411 W/m² | - |
| 1778078884 | 22.78° C | 50% | 1015.6 hPa | 0 mm | - | 418 W/m² | - |
| 1778078837 | 22.78° C | 50% | 1015.5 hPa | 0 mm | - | 420 W/m² | - |
| 1778078764 | 22.78° C | 50% | 1015.5 hPa | 0 mm | - | 425 W/m² | - |
| 1778078477 | 22.78° C | 46% | 1015.5 hPa | 0 mm | - | 439 W/m² | - |
| 1778078237 | 22.78° C | 46% | 1015.6 hPa | 0 mm | - | 455 W/m² | - |
| 1778077924 | 22.78° C | 48% | 1015.6 hPa | 0 mm | - | 469 W/m² | - |
| 1778077157 | 23.33° C | 46% | 1015.7 hPa | 0 mm | - | 510 W/m² | - |
| 1778076965 | 23.33° C | 47% | 1015.8 hPa | 0 mm | - | 522 W/m² | - |
| 1778076917 | 23.33° C | 47% | 1015.8 hPa | 0 mm | - | 526 W/m² | - |
| 1778076844 | 23.33° C | 48% | 1015.7 hPa | 0 mm | - | 527 W/m² | - |
* Rain latest hour (hover to see other rain measurements)
** Current wind speed in m/s (hover to see current wind gust speed)